Shelton, WA

12:49 AM PDT on July 26, 2016 (GMT -0700)
Sanderson

Weather History for KSHN - March, 2013

Change the Weather History Date:

Friday, March 1, 2013

  Actual Average Record
Temperature  
Mean Temperature 51 °F -  
Max Temperature 54 °F 51 °F 69 °F (1968)
Min Temperature 48 °F 34 °F 19 °F (1960)
Degree Days  
Heating Degree Days 14    
Growing Degree Days 1 (Base 50)    
Moisture  
Dew Point 49 °F    
Average Humidity 92    
Maximum Humidity 100    
Minimum Humidity 86    
Precipitation  
Precipitation 0.08 in - - ()
Sea Level Pressure  
Sea Level Pressure 30.32 in    
Wind  
Wind Speed 10 mph (SW)    
Max Wind Speed 15 mph    
Max Gust Speed 23 mph    
Visibility 10 miles    
Events Rain    
Averages and records for this station are not official NWS values.
T = Trace of Precipitation, MM = Missing Value Source: NWS Daily Summary

Daily Weather History Graph

Daily Weather History Graph

Search for Another Location

Airport or City:

Trip Planner

Search our weather history database for the weather conditions in past years. The results will help you decide how hot, cold, wet, or windy it might be!

Date:

Astronomy

Mar. 01, 2013 Rise Set
Actual Time 6:52 AM PST 5:58 PM PST
Civil Twilight 6:21 AM PST 6:29 PM PST
Nautical Twilight 5:46 AM PST 7:04 PM PST
Astronomical Twilight 5:10 AM PST 7:40 PM PST
Moon 11:00 PM PST (3/1) 8:22 AM PST (3/1)
Length of Visible Light 12h 07m
Length of Day
11h 06m
Waning Gibbous, 82% of the Moon is Illuminated
Mar 1
Waning Gibbous
Mar 4
Last Quarter
Mar 11
New
Mar 19
First Quarter
Mar 27
Full

Hourly Weather History & Observations

Time (PST) Temp. Dew Point Humidity Pressure Visibility Wind Dir Wind Speed Gust Speed Precip Events Conditions
12:53 AM 50.0 °F 48.9 °F 96% 30.32 in 10.0 mi SW 13.8 mph 23.0 mph 0.01 in   Overcast
1:53 AM 50.0 °F 48.9 °F 96% 30.33 in 10.0 mi SSW 15.0 mph 23.0 mph 0.00 in   Overcast
2:53 AM 50.0 °F 48.0 °F 93% 30.33 in 10.0 mi SW 11.5 mph - 0.00 in   Overcast
3:16 AM 50.0 °F 48.2 °F 94% 30.32 in 10.0 mi SW 10.4 mph - N/A   Overcast
3:53 AM 50.0 °F 48.2 °F 94% 30.31 in 10.0 mi SSW 11.5 mph - N/A   Overcast
4:53 AM 50.0 °F 48.0 °F 93% 30.32 in 10.0 mi SW 11.5 mph - N/A   Overcast
5:53 AM 48.9 °F 48.9 °F 100% 30.34 in 9.0 mi SW 10.4 mph - N/A   Overcast
6:53 AM 48.9 °F 48.9 °F 100% 30.35 in 8.0 mi SW 10.4 mph - 0.01 in   Overcast
7:53 AM 50.0 °F 48.0 °F 93% 30.35 in 10.0 mi SW 15.0 mph - 0.01 in   Overcast
8:53 AM 50.0 °F 48.0 °F 93% 30.36 in 10.0 mi SW 9.2 mph - 0.00 in   Overcast
9:53 AM 50.0 °F 48.0 °F 93% 30.36 in 10.0 mi SSW 13.8 mph 19.6 mph 0.01 in   Overcast
10:53 AM 51.1 °F 48.9 °F 92% 30.36 in 10.0 mi SSW 8.1 mph - N/A   Overcast
11:53 AM 52.0 °F 48.9 °F 89% 30.35 in 10.0 mi SSW 9.2 mph - N/A   Overcast
12:53 PM 53.6 °F 50.0 °F 88% 30.34 in 10.0 mi SSW 6.9 mph - N/A   Overcast
1:35 PM 53.6 °F 50.0 °F 88% 30.33 in 10.0 mi SSW 8.1 mph - N/A   Overcast
1:53 PM 54.0 °F 50.0 °F 86% 30.34 in 10.0 mi SW 9.2 mph - N/A   Overcast
2:53 PM 53.1 °F 51.1 °F 93% 30.32 in 10.0 mi SSW 5.8 mph - 0.02 in Rain Light Rain
3:19 PM 53.6 °F 51.8 °F 94% 30.31 in 10.0 mi SSW 10.4 mph - 0.00 in   Overcast
3:53 PM 54.0 °F 50.0 °F 86% 30.32 in 10.0 mi SW 10.4 mph - 0.00 in   Overcast
4:53 PM 52.0 °F 50.0 °F 93% 30.32 in 10.0 mi SSW 6.9 mph - 0.02 in   Overcast
5:53 PM 51.8 °F 50.0 °F 94% 30.31 in 10.0 mi South 4.6 mph - N/A   Overcast
6:13 PM 51.8 °F 48.2 °F 88% 30.30 in 10.0 mi SW 4.6 mph - N/A   Overcast
6:53 PM 51.1 °F 48.0 °F 89% 30.31 in 10.0 mi Variable 6.9 mph - N/A   Overcast
7:53 PM 50.0 °F 46.9 °F 89% 30.30 in 10.0 mi WSW 5.8 mph - N/A   Mostly Cloudy
8:53 PM 48.0 °F 48.0 °F 100% 30.30 in 10.0 mi West 3.5 mph - N/A   Overcast
9:53 PM 50.0 °F 46.9 °F 89% 30.29 in 10.0 mi WSW 5.8 mph - N/A   Overcast
10:46 PM 50.0 °F 46.4 °F 87% 30.27 in 10.0 mi WSW 3.5 mph - N/A   Overcast
10:53 PM 50.0 °F 46.9 °F 89% 30.28 in 10.0 mi West 3.5 mph - N/A   Overcast
11:53 PM 50.0 °F 46.9 °F 89% 30.27 in 10.0 mi West 6.9 mph - N/A   Overcast